Weather History for North Bend, OR

Change the Weather History Date:

Tuesday, February 12, 2013

  Actual Average Record
Temperature  
Mean Temperature 50 °F 46 °F  
Max Temperature 54 °F 53 °F 77 °F (1996)
Min Temperature 46 °F 40 °F 23 °F (1903)
Degree Days  
Heating Degree Days 15 19  
Month to date heating degree days 224 228  
Since 1 July heating degree days 2731 2883  
Cooling Degree Days 0 0  
Month to date cooling degree days 0 0  
Year to date cooling degree days 0 0  
Moisture  
Dew Point 47 °F    
Average Humidity 97    
Maximum Humidity 100    
Minimum Humidity 89    
Precipitation  
Precipitation 0.06 in 0.27 in 3.01 in (1984)
Month to date precipitation 1.21 3.30  
Year to date precipitation 5.16 13.49  
Sea Level Pressure  
Sea Level Pressure 30.51 in    
Wind  
Wind Speed 4 mph (NE)    
Max Wind Speed 9 mph    
Max Gust Speed -    
Visibility 6 miles    
Events      
T = Trace of Precipitation, MM = Missing Value Source: NWS Daily Summary

Daily Weather History Graph

Daily Weather History Graph

Search for Another Location

Airport:

Trip Planner

Search our weather history database for the weather conditions in past years. The results will help you decide how hot, cold, wet, or windy it might be!

Date:

Astronomy

Feb. 12, 2013 Rise Set
Actual Time 7:18 AM PST 5:44 PM PST
Civil Twilight 6:49 AM PST 6:13 PM PST
Nautical Twilight 6:15 AM PST 6:47 PM PST
Astronomical Twilight 5:42 AM PST 7:20 PM PST
Moon 8:12 AM PST (2/12) 8:58 PM PST (2/12)
Length of Visible Light 11h 24m
Length of Day
10h 25m
Waxing Crescent, 8% of the Moon is Illuminated
Feb 12
Waxing Crescent
Feb 17
First Quarter
Feb 25
Full
Mar 4
Last Quarter
Mar 11
New

Hourly Weather History & Observations

Time (PST) Temp. Windchill Dew Point Humidity Pressure Visibility Wind Dir Wind Speed Gust Speed Precip Events Conditions
12:15 AM 46.4 °F 44.3 °F 46.4 °F 100% 30.46 in 4.0 mi SE 4.6 mph - N/A   Overcast
12:35 AM 46.4 °F 44.3 °F 44.6 °F 93% 30.47 in 3.0 mi SE 4.6 mph - N/A   Overcast
12:55 AM 46.4 °F 44.3 °F 46.4 °F 100% 30.46 in 3.0 mi SE 4.6 mph - N/A   Overcast
1:15 AM 46.4 °F 45.2 °F 46.4 °F 100% 30.47 in 3.0 mi SE 3.5 mph - N/A   Overcast
1:35 AM 46.4 °F - 46.4 °F 100% 30.47 in 2.5 mi Calm Calm - N/A   Overcast
1:55 AM 46.4 °F - 46.4 °F 100% 30.47 in 2.5 mi Calm Calm - N/A   Overcast
2:15 AM 46.4 °F 45.2 °F 46.4 °F 100% 30.48 in 3.0 mi SE 3.5 mph - N/A   Overcast
2:35 AM 46.4 °F - 46.4 °F 100% 30.48 in 2.5 mi Calm Calm - N/A   Overcast
2:55 AM 46.4 °F - 46.4 °F 100% 30.48 in 3.0 mi Calm Calm - N/A   Overcast
3:15 AM 46.4 °F 45.2 °F 46.4 °F 100% 30.48 in 2.0 mi SE 3.5 mph - N/A   Overcast
3:35 AM 46.4 °F 43.5 °F 46.4 °F 100% 30.48 in 4.0 mi SE 5.8 mph - N/A   Overcast
3:55 AM 46.4 °F 42.9 °F 46.4 °F 100% 30.48 in 9.0 mi SE 6.9 mph - 0.01 in   Overcast
4:15 AM 46.4 °F 43.5 °F 46.4 °F 100% 30.48 in 10.0 mi SE 5.8 mph - N/A   Overcast
4:35 AM 46.4 °F 44.3 °F 46.4 °F 100% 30.48 in 10.0 mi SSE 4.6 mph - N/A   Overcast
4:55 AM 46.4 °F 45.2 °F 46.4 °F 100% 30.48 in 5.0 mi SE 3.5 mph - N/A   Overcast
5:15 AM 46.4 °F - 46.4 °F 100% 30.48 in 3.0 mi Calm Calm - N/A   Overcast
5:35 AM 46.4 °F 45.2 °F 46.4 °F 100% 30.48 in 5.0 mi SE 3.5 mph - N/A   Overcast
5:55 AM 46.4 °F 43.5 °F 46.4 °F 100% 30.47 in 10.0 mi SE 5.8 mph - N/A   Overcast
6:15 AM 46.4 °F 42.9 °F 46.4 °F 100% 30.48 in 5.0 mi SE 6.9 mph - N/A   Overcast
6:35 AM 46.4 °F 45.2 °F 46.4 °F 100% 30.49 in 3.0 mi SE 3.5 mph - N/A   Overcast
6:55 AM 46.4 °F 44.3 °F 46.4 °F 100% 30.49 in 9.0 mi SE 4.6 mph - 0.01 in   Overcast
7:15 AM 46.4 °F 44.3 °F 46.4 °F 100% 30.49 in 10.0 mi SE 4.6 mph - N/A   Overcast
7:35 AM 46.4 °F 44.3 °F 46.4 °F 100% 30.49 in 3.0 mi SE 4.6 mph - N/A   Overcast
7:55 AM 46.4 °F 44.3 °F 46.4 °F 100% 30.50 in 10.0 mi SE 4.6 mph - N/A   Overcast
8:15 AM 46.4 °F 42.9 °F 46.4 °F 100% 30.50 in 3.0 mi SE 6.9 mph - 0.01 in   Overcast
8:35 AM 46.4 °F 44.3 °F 44.6 °F 93% 30.51 in 9.0 mi SE 4.6 mph - 0.01 in   Overcast
8:55 AM 46.4 °F 44.3 °F 46.4 °F 100% 30.52 in 10.0 mi SE 4.6 mph - 0.02 in   Overcast
9:15 AM 46.4 °F 42.9 °F 46.4 °F 100% 30.52 in 9.0 mi SE 6.9 mph - N/A   Overcast
9:35 AM 46.4 °F 44.3 °F 46.4 °F 100% 30.52 in 10.0 mi SE 4.6 mph - N/A   Overcast
9:55 AM 48.2 °F - 48.2 °F 100% 30.53 in 4.0 mi SE 3.5 mph - N/A   Overcast
10:15 AM 48.2 °F - 48.2 °F 100% 30.54 in 1.5 mi SE 3.5 mph - N/A   Overcast
10:35 AM 48.2 °F - 48.2 °F 100% 30.54 in 1.5 mi Calm Calm - N/A   Overcast
10:55 AM 48.2 °F - 48.2 °F 100% 30.55 in 1.2 mi Calm Calm - 0.01 in   Overcast
11:15 AM 48.2 °F - 48.2 °F 100% 30.55 in 2.5 mi Calm Calm - N/A   Overcast
11:35 AM 48.2 °F - 48.2 °F 100% 30.55 in 4.0 mi West 4.6 mph - N/A   Overcast
11:55 AM 48.2 °F - 48.2 °F 100% 30.55 in 3.0 mi Calm Calm - N/A   Overcast
12:15 PM 50.0 °F - 50.0 °F 100% 30.54 in 2.0 mi Calm Calm - 0.01 in   Overcast
12:35 PM 50.0 °F - 50.0 °F 100% 30.54 in 8.0 mi Calm Calm - 0.01 in   Overcast
12:55 PM 51.8 °F - 50.0 °F 94% 30.53 in 9.0 mi Calm Calm - 0.01 in   Overcast
1:15 PM 51.8 °F - 50.0 °F 94% 30.53 in 10.0 mi Calm Calm - N/A   Overcast
1:35 PM 53.6 °F - 51.8 °F 94% 30.52 in 8.0 mi WNW 5.8 mph - N/A   Mostly Cloudy
1:55 PM 53.6 °F - 51.8 °F 94% 30.52 in 10.0 mi NW 4.6 mph - N/A   Overcast
2:15 PM 51.8 °F - 50.0 °F 94% 30.51 in 10.0 mi WNW 6.9 mph - N/A   Mostly Cloudy
2:35 PM 51.8 °F - 48.2 °F 88% 30.51 in 10.0 mi NNW 5.8 mph - N/A   Overcast
2:55 PM 51.8 °F - 48.2 °F 88% 30.52 in 10.0 mi NW 3.5 mph - N/A   Overcast
3:15 PM 51.8 °F - 48.2 °F 88% 30.52 in 10.0 mi NW 4.6 mph - N/A   Overcast
3:35 PM 51.8 °F - 48.2 °F 88% 30.52 in 10.0 mi NNW 5.8 mph - N/A   Mostly Cloudy
3:55 PM 51.8 °F - 48.2 °F 88% 30.51 in 10.0 mi NNW 5.8 mph - N/A   Overcast
4:15 PM 51.8 °F - 48.2 °F 88% 30.51 in 10.0 mi NNW 4.6 mph - N/A   Overcast
4:35 PM 51.8 °F - 48.2 °F 88% 30.51 in 10.0 mi NNW 4.6 mph - N/A   Scattered Clouds
4:55 PM 51.8 °F - 48.2 °F 88% 30.51 in 10.0 mi NW 9.2 mph - N/A   Mostly Cloudy
5:15 PM 50.0 °F - 48.2 °F 94% 30.51 in 10.0 mi NW 6.9 mph - N/A   Mostly Cloudy
5:35 PM 48.2 °F - 48.2 °F 100% 30.51 in 10.0 mi NNW 4.6 mph - N/A   Partly Cloudy
5:55 PM 48.2 °F - 48.2 °F 100% 30.52 in 10.0 mi NW 6.9 mph - N/A   Mostly Cloudy
6:15 PM 48.2 °F - 48.2 °F 100% 30.52 in 10.0 mi NNW 5.8 mph - N/A   Overcast
6:35 PM 48.2 °F - 48.2 °F 100% 30.52 in 10.0 mi North 3.5 mph - N/A   Overcast
6:55 PM 48.2 °F - 48.2 °F 100% 30.52 in 10.0 mi Calm Calm - N/A   Overcast
7:15 PM 48.2 °F - 46.4 °F 93% 30.53 in 10.0 mi Calm Calm - N/A   Overcast
7:35 PM 48.2 °F - 46.4 °F 93% 30.52 in 8.0 mi Calm Calm - N/A   Overcast
7:55 PM 48.2 °F - 46.4 °F 93% 30.51 in 6.0 mi Calm Calm - N/A   Overcast
8:15 PM 48.2 °F - 46.4 °F 93% 30.51 in 2.5 mi Calm Calm - N/A   Overcast
8:35 PM 48.2 °F - 46.4 °F 93% 30.52 in 2.5 mi NW 5.8 mph - N/A   Overcast
8:55 PM 48.2 °F - 46.4 °F 93% 30.52 in 1.8 mi NNW 8.1 mph - N/A   Overcast
9:15 PM 48.2 °F - 48.2 °F 100% 30.52 in 2.0 mi NNW 8.1 mph - N/A   Overcast
9:35 PM 48.2 °F - 48.2 °F 100% 30.52 in 2.5 mi NW 3.5 mph - N/A   Overcast
9:55 PM 48.2 °F - 48.2 °F 100% 30.53 in 5.0 mi North 3.5 mph - N/A   Overcast
10:15 PM 48.2 °F - 48.2 °F 100% 30.53 in 7.0 mi North 5.8 mph - N/A   Overcast
10:35 PM 48.2 °F - 48.2 °F 100% 30.53 in 10.0 mi North 4.6 mph - N/A   Overcast
10:55 PM 48.2 °F - 46.4 °F 93% 30.53 in 7.0 mi North 6.9 mph - N/A   Overcast
11:15 PM 48.2 °F - 46.4 °F 93% 30.53 in 8.0 mi North 5.8 mph - N/A   Overcast
11:35 PM 48.2 °F - 46.4 °F 93% 30.53 in 7.0 mi North 4.6 mph - N/A   Overcast
11:55 PM 48.2 °F - 46.4 °F 93% 30.53 in 6.0 mi North 3.5 mph - N/A   Overcast